Location: Albany
(35.0000°S, 118.0000°E)
Time: 20:18:46
(UTC-04:00)

Amateur Radio Satellites - All Passes

Search period start: 25 June 2017 19:48
Search period end: 26 June 2017 19:48
Location: Albany, 35.0000°S, 118.0000°E

Satellite Date Start Highest point End Downlink Frequencies (MHz)
Time Altitude Azimuth
BEESAT 2 25 Jun 19:49:58 19:51:42 13° 71° (ENE) 19:53:25 435.950
O/OREOS (USA 219) 25 Jun 19:50:52 19:53:29 15° 81° (E) 19:56:08 437.305
RS-15 25 Jun 20:00:25 20:11:17 64° 67° (ENE) 20:21:57 29.354- 29.394
STRAND 1 25 Jun 20:09:15 20:14:09 45° 252° (WSW) 20:19:01 437.568
SEEDS 25 Jun 20:15:58 20:18:09 14° 272° (W) 20:20:21 437.485
EO-88 25 Jun 20:20:44 20:22:39 14° 112° (ESE) 20:24:35 145.990 - 145.960
NO-84 25 Jun 20:23:28 20:26:45 38° 51° (NE) 20:29:49 435.350 FM
BEESAT 3 25 Jun 20:25:59 20:29:47 65° 240° (WSW) 20:33:36 437.485
YUBILEINY 25 Jun 20:26:56 20:34:14 31° 95° (E) 20:41:31 435.215
AO-85 25 Jun 20:27:15 20:32:07 43° 235° (SW) 20:37:13 145.980
AO-73 25 Jun 20:36:49 20:40:40 35° 278° (W) 20:44:33 145.935
FO-29 25 Jun 20:41:59 20:44:02 12° 88° (E) 20:46:06 435.910
DELFI C3 25 Jun 20:55:04 20:59:03 65° 104° (ESE) 21:03:06 145.870
M-CUBED/EXP-1 PRIME 25 Jun 20:58:44 21:01:39 19° 82° (E) 21:04:24 437.505
Oscar 11 25 Jun 21:04:20 21:07:47 23° 275° (W) 21:11:18 .
PCSat 25 Jun 21:06:07 21:11:35 84° 116° (ESE) 21:17:00 145.827
ZACube-1 25 Jun 21:14:23 21:16:05 12° 272° (W) 21:17:46 437.345
PRISM 25 Jun 21:16:19 21:19:22 19° 85° (E) 21:22:22 437.425
BEESAT 2 25 Jun 21:25:19 21:29:02 41° 237° (WSW) 21:32:46 435.950
TIGRISAT 25 Jun 21:25:50 21:29:24 24° 84° (E) 21:32:59 435.000
O/OREOS (USA 219) 25 Jun 21:28:11 21:32:28 41° 246° (WSW) 21:36:51 437.305
SO-50 25 Jun 21:47:44 21:51:09 19° 131° (SE) 21:54:30 436.795
ESTCUBE 1 25 Jun 21:49:02 21:51:49 16° 113° (ESE) 21:54:38 437.505/2401.250
EO-88 25 Jun 21:52:45 21:56:00 30° 277° (W) 21:59:19 145.990 - 145.960
NO-84 25 Jun 22:02:06 22:04:17 16° 218° (SW) 22:06:24 435.350 FM
UNISAT 6 25 Jun 22:07:20 22:11:44 84° 80° (E) 22:16:11 437.425
RS-15 25 Jun 22:14:25 22:24:11 36° 226° (SW) 22:33:57 29.354- 29.394
LO-87 25 Jun 22:14:33 22:18:05 49° 105° (ESE) 22:21:39 145.935 - 145.965
YUBILEINY 25 Jun 22:22:09 22:30:33 50° 258° (WSW) 22:39:01 435.215
FO-29 25 Jun 22:24:23 22:29:33 60° 254° (WSW) 22:34:47 435.910
M-CUBED/EXP-1 PRIME 25 Jun 22:32:28 22:36:06 28° 245° (WSW) 22:39:27 437.505
PRISM 25 Jun 22:51:03 22:54:36 27° 250° (WSW) 22:58:07 437.425
POLYITAN 1 25 Jun 22:55:03 22:57:13 14° 87° (E) 22:59:23 437.675
TIGRISAT 25 Jun 23:02:25 23:05:59 25° 250° (WSW) 23:09:34 435.000
QB50P2 25 Jun 23:05:01 23:08:12 20° 85° (E) 23:11:21 145.880/145.840
AIST 2D 25 Jun 23:15:28 23:19:03 61° 80° (E) 23:22:36 435.315
ESTCUBE 1 25 Jun 23:23:56 23:28:13 42° 279° (W) 23:32:35 437.505/2401.250
VELOX 1 25 Jun 23:24:29 23:28:43 42° 107° (ESE) 23:32:59 145.980
SO-50 25 Jun 23:27:16 23:31:52 48° 295° (WNW) 23:36:23 436.795
EO-79 25 Jun 23:28:50 23:32:46 35° 82° (E) 23:36:38 145.935-145.965
50 SAT 25 Jun 23:33:59 23:36:33 19° 110° (ESE) 23:39:07 437.505
DUCHIFAT 1 25 Jun 23:42:28 23:46:29 40° 81° (E) 23:50:27 145.980
SPROUT 25 Jun 23:43:36 23:47:54 77° 104° (ESE) 23:52:14 437.525
DX 1 25 Jun 23:44:12 23:47:36 22° 111° (ESE) 23:51:02 434.975-435.025
NANOSAT C BR1 25 Jun 23:50:59 23:55:12 60° 80° (E) 23:59:22 145.865
UKube-1 26 Jun 00:00:48 00:04:11 22° 111° (ESE) 00:07:36 .
POLYITAN 1 26 Jun 00:29:08 00:33:08 40° 253° (WSW) 00:37:07 437.675
RS-15 26 Jun 00:37:16 00:41:21 12° 193° (SSW) 00:45:30 29.354- 29.394
QB50P2 26 Jun 00:40:18 00:43:56 28° 251° (WSW) 00:47:33 145.880/145.840
BUGSAT 1 26 Jun 00:51:21 00:55:27 77° 77° (ENE) 00:59:30 437.445
VELOX 1 26 Jun 01:02:44 01:05:18 15° 273° (W) 01:07:54 145.980
Oscar 19 26 Jun 01:05:25 01:10:18 37° 82° (E) 01:15:06 437.125/150
EO-79 26 Jun 01:05:31 01:08:12 16° 248° (WSW) 01:10:51 145.935-145.965
50 SAT 26 Jun 01:06:41 01:09:12 19° 276° (W) 01:11:44 437.505
DUCHIFAT 1 26 Jun 01:19:29 01:21:45 14° 247° (WSW) 01:24:01 145.980
DX 1 26 Jun 01:19:47 01:23:34 28° 277° (W) 01:27:27 434.975-435.025
ITUPSAT 1 26 Jun 01:24:50 01:27:59 18° 114° (ESE) 01:31:09 437.325
BEESAT 26 Jun 01:33:59 01:37:40 23° 112° (ESE) 01:41:22 436.000
UKube-1 26 Jun 01:36:19 01:40:01 27° 277° (W) 01:43:46 .
Gurwin Techsat 1B 26 Jun 02:01:09 02:06:34 81° 77° (ENE) 02:11:54 435.225
MOZHAYETS 4 26 Jun 02:37:47 02:42:18 66° 105° (ESE) 02:46:54
Oscar 19 26 Jun 02:45:14 02:49:20 23° 247° (WSW) 02:53:24 437.125/150
RS-15 26 Jun 02:54:10 03:00:44 17° 154° (SSE) 03:07:24 29.354- 29.394
ITUPSAT 1 26 Jun 03:00:53 03:05:24 42° 279° (W) 03:10:00 437.325
BEESAT 26 Jun 03:10:56 03:15:12 32° 278° (W) 03:19:31 436.000
CUBESAT XI-V 26 Jun 03:20:10 03:24:19 33° 109° (ESE) 03:28:33 437.345
ITAMSAT 1 26 Jun 03:22:39 03:27:49 59° 79° (ENE) 03:32:55 435.822/435.867
AO-7 26 Jun 03:23:15 03:31:26 56° 77° (ENE) 03:39:31 .
AO-85 26 Jun 03:24:29 03:25:44 11° 139° (SE) 03:26:59 145.980
Gurwin Techsat 1B 26 Jun 03:44:01 03:45:43 11° 241° (WSW) 03:47:25 435.225
KKS-1 26 Jun 04:08:24 04:12:54 79° 104° (ESE) 04:17:27 437.445
DOVE 4 26 Jun 04:33:03 04:33:26 10° 90° (E) 04:33:48 437.250
NO-84 26 Jun 04:36:49 04:39:43 54° 134° (SE) 04:42:41 435.350 FM
STARS 26 Jun 04:36:56 04:41:20 67° 105° (ESE) 04:45:47 437.465
BEESAT 3 26 Jun 04:46:00 04:49:06 23° 126° (SE) 04:52:12 437.485
CUBESAT XI-V 26 Jun 04:58:11 05:01:41 21° 274° (W) 05:05:16 437.345
AO-85 26 Jun 05:02:02 05:07:12 74° 119° (ESE) 05:11:56 145.980
ITAMSAT 1 26 Jun 05:03:47 05:06:44 15° 244° (WSW) 05:09:39 435.822/435.867
RS-15 26 Jun 05:05:27 05:16:21 55° 126° (SE) 05:27:41 29.354- 29.394
AO-7 26 Jun 05:16:46 05:23:41 30° 240° (WSW) 05:30:35 .
XW-2F 26 Jun 05:30:04 05:32:57 20° 85° (E) 05:35:48 145.980 - 146.000
XW-2D 26 Jun 05:34:09 05:37:21 24° 84° (E) 05:40:32 145.860 - 145.880
LilacSat-2 26 Jun 05:42:45 05:46:19 32° 83° (E) 05:49:50 437.200
XW-2B 26 Jun 05:42:57 05:46:25 30° 83° (E) 05:49:50 145.730 - 145.750
STRAND 1 26 Jun 05:44:13 05:47:48 19° 114° (ESE) 05:51:24 437.568
BEESAT 2 26 Jun 05:45:46 05:49:21 35° 124° (ESE) 05:52:55 435.950
XW-2C 26 Jun 05:58:11 06:01:59 49° 81° (E) 06:05:45 145.795 - 145.815
O/OREOS (USA 219) 26 Jun 06:02:55 06:06:15 19° 120° (ESE) 06:09:34 437.305
DOVE 4 26 Jun 06:07:06 06:11:33 55° 254° (WSW) 06:15:43 437.250
CUTE-I 26 Jun 06:08:57 06:14:12 52° 80° (E) 06:19:23 437.470
KAITUO 1B 26 Jun 06:11:00 06:14:49 54° 80° (E) 06:18:35 145.475/437.950
BEESAT 3 26 Jun 06:23:29 06:26:33 23° 292° (WNW) 06:29:37 437.485
Tancredo 1 26 Jun 06:39:33 06:42:33 57° 45° (NE) 06:45:34 437.200
YUBILEINY 26 Jun 06:44:01 06:46:17 11° 118° (ESE) 06:48:32 435.215
CUTE 1.7 + AOD 2 26 Jun 06:44:08 06:47:41 24° 85° (E) 06:51:11 437.475
AO-85 26 Jun 06:45:57 06:46:49 10° 284° (WNW) 06:47:41 145.980
NUDT-PHONESAT 26 Jun 06:46:02 06:49:43 48° 255° (WSW) 06:53:23 437.300
HO-68 26 Jun 06:46:50 06:53:19 34° 82° (E) 06:59:44 435.675
CUBEBUG 2 26 Jun 07:01:43 07:04:39 18° 86° (E) 07:07:37 437.445
XW-2F 26 Jun 07:03:51 07:06:59 23° 251° (WSW) 07:10:05 145.980 - 146.000
ISS 26 Jun 07:05:15 07:08:27 48° 46° (NE) 07:11:41 437.550
XW-2D 26 Jun 07:08:31 07:11:20 19° 250° (WSW) 07:14:10 145.860 - 145.880
AAUSAT CUBESAT 2 26 Jun 07:15:49 07:18:15 15° 87° (E) 07:20:41 437.432
XW-2B 26 Jun 07:17:54 07:20:18 16° 249° (WSW) 07:22:42 145.730 - 145.750
LilacSat-2 26 Jun 07:17:59 07:20:17 15° 249° (WSW) 07:22:33 437.200
RS-15 26 Jun 07:18:17 07:28:19 39° 287° (WNW) 07:38:46 29.354- 29.394
STRAND 1 26 Jun 07:21:43 07:26:36 44° 280° (W) 07:31:32 437.568
BEESAT 2 26 Jun 07:24:35 07:26:45 14° 289° (WNW) 07:28:54 435.950
XW-2A 26 Jun 07:26:49 07:30:14 56° 80° (E) 07:33:37 145.665 - 145.685
ZACube-1 26 Jun 07:29:06 07:30:25 11° 88° (E) 07:31:45 437.345
UWE-3 26 Jun 07:33:35 07:37:09 24° 84° (E) 07:40:44 435.000/436.395/437.385
XW-2C 26 Jun 07:35:19 07:35:40 10° 246° (WSW) 07:36:01 145.795 - 145.815
M-CUBED/EXP-1 PRIME 26 Jun 07:40:41 07:43:49 18° 118° (ESE) 07:47:01 437.505
O/OREOS (USA 219) 26 Jun 07:41:28 07:45:46 37° 284° (WNW) 07:50:01 437.305
CUTE-I 26 Jun 07:50:17 07:53:46 18° 245° (WSW) 07:57:14 437.470
SEEDS 26 Jun 08:00:33 08:04:51 64° 256° (WSW) 08:09:04 437.485
Tancredo 1 26 Jun 08:16:38 08:18:23 14° 209° (SSW) 08:20:08 437.200
CUTE 1.7 + AOD 2 26 Jun 08:19:51 08:23:23 24° 250° (WSW) 08:26:52 437.475
TIGRISAT 26 Jun 08:22:28 08:24:53 15° 113° (ESE) 08:27:18 435.000
AO-73 26 Jun 08:27:11 08:31:27 51° 80° (E) 08:35:46 145.935
FO-29 26 Jun 08:31:55 08:38:24 41° 109° (ESE) 08:44:14 435.910
HO-68 26 Jun 08:34:21 08:40:59 40° 247° (WSW) 08:47:35 435.675
YUBILEINY 26 Jun 08:35:55 08:44:43 71° 98° (E) 08:53:27 435.215
CUBEBUG 2 26 Jun 08:37:29 08:41:17 32° 252° (WSW) 08:45:09 437.445
DELFI C3 26 Jun 08:38:06 08:38:54 10° 89° (E) 08:39:42 145.870
ISS 26 Jun 08:42:46 08:45:08 18° 210° (SSW) 08:47:30 437.550
AAUSAT CUBESAT 2 26 Jun 08:49:54 08:53:49 36° 253° (WSW) 08:57:40 437.432
Oscar 11 26 Jun 08:53:37 08:58:04 82° 79° (E) 09:02:27 .
ZACube-1 26 Jun 09:02:41 09:06:55 52° 255° (WSW) 09:11:13 437.345
UNISAT 6 26 Jun 09:02:44 09:06:57 47° 106° (ESE) 09:11:08 437.425
UWE-3 26 Jun 09:10:00 09:13:28 24° 251° (WSW) 09:16:58 435.000/436.395/437.385
M-CUBED/EXP-1 PRIME 26 Jun 09:13:26 09:17:48 44° 283° (WNW) 09:22:20 437.505
EO-88 26 Jun 09:24:36 09:27:46 26° 84° (E) 09:30:56 145.990 - 145.960
PRISM 26 Jun 09:35:53 09:40:02 62° 281° (W) 09:44:14 437.425
AIST 2D 26 Jun 09:48:06 09:49:50 13° 111° (ESE) 09:51:35 435.315
QB50P2 26 Jun 09:56:41 09:57:33 11° 115° (ESE) 09:58:25 145.880/145.840
TIGRISAT 26 Jun 09:57:02 10:01:12 42° 279° (W) 10:05:20 435.000
PCSat 26 Jun 10:03:19 10:06:43 17° 76° (ENE) 10:10:08 145.827
AO-73 26 Jun 10:05:24 10:07:13 12° 247° (WSW) 10:09:03 145.935
DELFI C3 26 Jun 10:10:00 10:13:54 46° 255° (WSW) 10:17:43 145.870
FO-29 26 Jun 10:17:19 10:23:24 30° 277° (W) 10:28:58 435.910
EO-79 26 Jun 10:18:42 10:21:36 18° 112° (ESE) 10:24:30 145.935-145.965
DUCHIFAT 1 26 Jun 10:31:32 10:34:37 20° 111° (ESE) 10:37:44 145.980
YUBILEINY 26 Jun 10:34:36 10:40:33 21° 261° (W) 10:46:30 435.215
NANOSAT C BR1 26 Jun 10:39:52 10:43:30 28° 109° (ESE) 10:47:09 145.865
UNISAT 6 26 Jun 10:42:01 10:43:51 12° 272° (W) 10:45:41 437.425
EO-88 26 Jun 10:58:50 11:01:12 16° 249° (WSW) 11:03:32 145.990 - 145.960
POLYITAN 1 26 Jun 11:17:38 11:21:52 88° 277° (W) 11:26:09 437.675
LO-87 26 Jun 11:17:50 11:21:27 80° 257° (WSW) 11:25:01 145.935 - 145.965
ESTCUBE 1 26 Jun 11:19:22 11:23:52 51° 80° (E) 11:28:19 437.505/2401.250
AIST 2D 26 Jun 11:19:40 11:22:44 28° 277° (W) 11:25:50 435.315
JUGNU 26 Jun 11:25:23 11:27:19 12° 14° (NNE) 11:29:15 437.505
QB50P2 26 Jun 11:28:36 11:32:46 58° 281° (W) 11:37:00 145.880/145.840
SPROUT 26 Jun 11:33:43 11:36:28 16° 86° (E) 11:39:11 437.525
BUGSAT 1 26 Jun 11:37:41 11:41:25 33° 108° (ESE) 11:45:08 437.445
Gurwin Techsat 1B 26 Jun 11:44:06 11:45:01 10° 119° (ESE) 11:45:55 435.225
PCSat 26 Jun 11:44:19 11:49:35 54° 241° (WSW) 11:54:56 145.827
EO-79 26 Jun 11:53:16 11:57:05 32° 277° (W) 12:00:55 145.935-145.965
SO-50 26 Jun 12:01:32 12:02:30 11° 74° (ENE) 12:03:29 436.795
DUCHIFAT 1 26 Jun 12:06:26 12:10:04 28° 277° (W) 12:13:44 145.980
NANOSAT C BR1 26 Jun 12:16:05 12:19:10 20° 275° (W) 12:22:16 145.865
Oscar 19 26 Jun 12:18:55 12:23:42 39° 109° (ESE) 12:28:33 437.125/150
50 SAT 26 Jun 12:31:29 12:34:34 29° 82° (E) 12:37:36 437.505
AO-7 26 Jun 12:34:13 12:35:27 10° 132° (SE) 12:36:41 .
VELOX 1 26 Jun 12:53:47 12:58:12 60° 255° (WSW) 13:02:33 145.980
ESTCUBE 1 26 Jun 12:57:54 13:00:10 14° 245° (WSW) 13:02:26 437.505/2401.250
Tancredo 1 26 Jun 13:07:02 13:09:03 16° 149° (SSE) 13:11:03 437.200
SPROUT 26 Jun 13:08:32 13:12:26 34° 252° (WSW) 13:16:17 437.525
DX 1 26 Jun 13:10:27 13:14:51 63° 79° (E) 13:19:09 434.975-435.025
JUGNU 26 Jun 13:11:50 13:15:34 17° 4° (N) 13:19:17 437.505
BUGSAT 1 26 Jun 13:14:12 13:16:48 16° 274° (W) 13:19:24 437.445
Gurwin Techsat 1B 26 Jun 13:18:46 13:24:07 88° 281° (W) 13:29:32 435.225
UKube-1 26 Jun 13:25:44 13:30:05 62° 79° (E) 13:34:21 .
ISS 26 Jun 13:36:20 13:38:36 17° 150° (SSE) 13:40:52 437.550
SO-50 26 Jun 13:37:38 13:42:19 70° 239° (WSW) 13:47:06 436.795
Oscar 19 26 Jun 13:59:12 14:03:05 21° 274° (W) 14:07:01 437.125/150
50 SAT 26 Jun 14:05:31 14:07:01 12° 248° (WSW) 14:08:31 437.505
AO-7 26 Jun 14:18:18 14:26:25 58° 113° (ESE) 14:34:33 .
MOZHAYETS 4 26 Jun 14:36:51 14:40:19 20° 85° (E) 14:43:44
ITAMSAT 1 26 Jun 14:37:10 14:42:19 65° 106° (ESE) 14:47:32 435.822/435.867
Tancredo 1 26 Jun 14:41:51 14:44:48 44° 314° (NW) 14:47:41 437.200
DX 1 26 Jun 14:49:37 14:50:25 10° 244° (WSW) 14:51:13 434.975-435.025
SRMSAT 26 Jun 14:58:50 15:02:08 15° 10° (N) 15:05:26 437.500
JUGNU 26 Jun 15:00:16 15:03:50 16° 354° (N) 15:07:23 437.505
ITUPSAT 1 26 Jun 15:04:16 15:09:05 63° 78° (ENE) 15:13:51 437.325
UKube-1 26 Jun 15:04:43 15:05:31 10° 244° (WSW) 15:06:18 .
ISS 26 Jun 15:12:04 15:15:18 51° 314° (NW) 15:18:30 437.550
BEESAT 26 Jun 15:13:35 15:18:26 82° 76° (ENE) 15:23:14 436.000
CUBESAT XI-V 26 Jun 15:22:48 15:23:34 10° 90° (E) 15:24:20 437.345
DOVE 4 26 Jun 15:34:41 15:35:54 11° 117° (ESE) 15:37:06 437.250
KKS-1 26 Jun 16:03:35 16:06:48 19° 85° (E) 16:09:59 437.445
AO-7 26 Jun 16:12:36 16:19:27 28° 277° (W) 16:26:21 .
MOZHAYETS 4 26 Jun 16:13:16 16:17:28 33° 251° (WSW) 16:21:39
ITAMSAT 1 26 Jun 16:19:59 16:22:09 13° 272° (W) 16:24:21 435.822/435.867
LilacSat-2 26 Jun 16:23:59 16:24:46 10° 114° (ESE) 16:25:32 437.200
STARS 26 Jun 16:30:55 16:33:32 15° 86° (E) 16:36:06 437.465
XW-2C 26 Jun 16:37:27 16:39:40 15° 111° (ESE) 16:41:54 145.795 - 145.815
ITUPSAT 1 26 Jun 16:44:17 16:46:18 13° 244° (WSW) 16:48:19 437.325
SRMSAT 26 Jun 16:46:36 16:50:34 18° 359° (N) 16:54:33 437.500
KAITUO 1B 26 Jun 16:48:53 16:51:10 16° 111° (ESE) 16:53:29 145.475/437.950
CUBESAT XI-V 26 Jun 16:56:34 17:01:19 65° 256° (WSW) 17:05:59 437.345
DOVE 4 26 Jun 17:07:28 17:12:48 86° 286° (WNW) 17:18:05 437.250
HO-68 26 Jun 17:13:46 17:18:26 19° 121° (ESE) 17:23:07 435.675
NUDT-PHONESAT 26 Jun 17:21:42 17:25:10 40° 106° (ESE) 17:28:42 437.300
CUTE-I 26 Jun 17:27:18 17:32:35 62° 106° (ESE) 17:37:56 437.470
CUTE 1.7 + AOD 2 26 Jun 17:35:20 17:36:54 12° 114° (ESE) 17:38:28 437.475
KKS-1 26 Jun 17:39:23 17:43:22 32° 251° (WSW) 17:47:19 437.445
XW-2F 26 Jun 17:40:21 17:44:06 82° 282° (WNW) 17:47:56 145.980 - 146.000
XW-2D 26 Jun 17:45:09 17:48:53 63° 281° (W) 17:52:42 145.860 - 145.880
XW-2B 26 Jun 17:54:18 17:57:57 49° 279° (W) 18:01:40 145.730 - 145.750
LilacSat-2 26 Jun 17:54:56 17:58:33 44° 279° (W) 18:02:16 437.200
XW-2A 26 Jun 17:57:03 17:58:03 11° 112° (ESE) 17:59:04 145.665 - 145.685
CUBEBUG 2 26 Jun 17:59:07 17:59:45 10° 114° (ESE) 18:00:24 437.445
STARS 26 Jun 18:05:52 18:09:59 39° 252° (WSW) 18:14:03 437.465
XW-2C 26 Jun 18:10:14 18:13:33 29° 277° (W) 18:16:56 145.795 - 145.815
KAITUO 1B 26 Jun 18:21:41 18:24:54 27° 277° (W) 18:28:11 145.475/437.950
UWE-3 26 Jun 18:28:51 18:30:55 13° 113° (ESE) 18:32:57 435.000/436.395/437.385
SRMSAT 26 Jun 18:35:57 18:39:01 14° 349° (N) 18:42:05 437.500
SEEDS 26 Jun 18:48:23 18:52:30 54° 105° (ESE) 18:56:41 437.485
HO-68 26 Jun 18:58:11 19:05:20 76° 284° (WNW) 19:12:35 435.675
CUTE 1.7 + AOD 2 26 Jun 19:08:04 19:12:12 51° 280° (W) 19:16:25 437.475
CUTE-I 26 Jun 19:10:18 19:12:59 14° 272° (W) 19:15:41 437.470
AO-85 26 Jun 19:11:58 19:16:53 55° 65° (ENE) 19:22:05 145.980
AO-73 26 Jun 19:19:53 19:23:19 25° 109° (ESE) 19:26:45 145.935
XW-2A 26 Jun 19:27:25 19:30:26 31° 278° (W) 19:33:30 145.665 - 145.685
CUBEBUG 2 26 Jun 19:31:34 19:35:51 59° 280° (W) 19:40:06 437.445
STRAND 1 26 Jun 19:35:11 19:40:23 83° 77° (ENE) 19:45:32 437.568
BEESAT 2 26 Jun 19:35:32 19:37:29 13° 71° (ENE) 19:39:26 435.950
AAUSAT CUBESAT 2 26 Jun 19:35:45 19:39:56 90° 120° (ESE) 19:44:12 437.432
